RYR124 EGPH-ENBR

Flight info

Callsign RYR124
Flight time 1h 11m
Altitude 25000
Route GRICE P600 ASNUD/N0454F350 DCT BEREP DCT MODNI
Aircraft B738/M-SDE2E3FGHIRWXY/LB1

Departure

Time 2026-04-21 16:31
Airport Edinburgh Airport (EGPH)

Arrival

Time 2026-04-21 17:42
Airport Bergen Airport, Flesland (ENBR)
Time Latitude Longitude Altitude Speed Heading
2026-04-21 15:02 55.94659 -3.36615 106 ft 0 kts 89°
2026-04-21 15:43 55.94659 -3.36616 105 ft 1 kts 89°
2026-04-21 15:44 55.94658 -3.36641 105 ft 1 kts 89°
2026-04-21 15:44 55.94658 -3.36659 105 ft 2 kts 82°
2026-04-21 15:44 55.94653 -3.36684 105 ft 2 kts 62°
2026-04-21 15:44 55.94644 -3.36706 105 ft 2 kts 44°
2026-04-21 15:45 55.94633 -3.36722 105 ft 2 kts 27°
2026-04-21 15:45 55.94618 -3.36731 105 ft 2 kts
2026-04-21 15:45 55.94610 -3.36733 105 ft 1 kts 360°
2026-04-21 15:45 55.94604 -3.36732 105 ft 0 kts 359°
2026-04-21 16:16 55.94605 -3.36732 105 ft 1 kts 359°
2026-04-21 16:17 55.94652 -3.36733 105 ft 10 kts
2026-04-21 16:17 55.94705 -3.36732 104 ft 12 kts
2026-04-21 16:17 55.94707 -3.36732 104 ft 0 kts
2026-04-21 16:20 55.94709 -3.36732 104 ft 0 kts
2026-04-21 16:21 55.94733 -3.36734 103 ft 6 kts 353°
2026-04-21 16:21 55.94750 -3.36740 103 ft 3 kts 347°
2026-04-21 16:21 55.94817 -3.36770 102 ft 5 kts 349°
2026-04-21 16:22 55.94846 -3.36777 101 ft 6 kts 355°
2026-04-21 16:22 55.94895 -3.36797 101 ft 4 kts 336°
2026-04-21 16:22 55.94913 -3.36816 101 ft 0 kts 326°
2026-04-21 16:22 55.94928 -3.36860 100 ft 8 kts 274°
2026-04-21 16:23 55.94892 -3.36994 100 ft 14 kts 238°
2026-04-21 16:23 55.94823 -3.37196 101 ft 24 kts 238°
2026-04-21 16:23 55.94738 -3.37447 101 ft 24 kts 240°
2026-04-21 16:23 55.94642 -3.37730 102 ft 24 kts 238°
2026-04-21 16:24 55.94563 -3.37961 105 ft 23 kts 238°
2026-04-21 16:24 55.94485 -3.38190 108 ft 20 kts 239°
2026-04-21 16:24 55.94422 -3.38374 110 ft 17 kts 240°
2026-04-21 16:24 55.94376 -3.38512 110 ft 8 kts 239°
2026-04-21 16:25 55.94356 -3.38568 111 ft 3 kts 239°
2026-04-21 16:25 55.94348 -3.38592 111 ft 0 kts 239°
2026-04-21 16:26 55.94336 -3.38629 111 ft 12 kts 240°
2026-04-21 16:26 55.94295 -3.38750 113 ft 5 kts 239°
2026-04-21 16:26 55.94282 -3.38817 114 ft 2 kts 275°
2026-04-21 16:27 55.94282 -3.38821 114 ft 0 kts 278°
2026-04-21 16:27 55.94302 -3.38866 114 ft 8 kts 323°
2026-04-21 16:27 55.94319 -3.38886 114 ft 0 kts 329°
2026-04-21 16:28 55.94329 -3.38897 114 ft 8 kts 329°
2026-04-21 16:28 55.94409 -3.38940 113 ft 15 kts 26°
2026-04-21 16:29 55.94461 -3.38828 112 ft 19 kts 59°
2026-04-21 16:29 55.94517 -3.38661 108 ft 0 kts 59°
2026-04-21 16:29 55.94518 -3.38659 108 ft 0 kts 59°
2026-04-21 16:30 55.94554 -3.38555 107 ft 38 kts 59°
2026-04-21 16:30 55.94880 -3.37595 99 ft 133 kts 60°
2026-04-21 16:30 55.95427 -3.36021 404 ft 159 kts 59°
2026-04-21 16:31 55.96066 -3.34245 1082 ft 191 kts 55°
2026-04-21 16:31 55.96998 -3.32512 2362 ft 211 kts 44°
2026-04-21 16:31 55.98126 -3.30739 3691 ft 229 kts 43°
2026-04-21 16:31 55.99346 -3.28841 4986 ft 246 kts 43°
2026-04-21 16:32 56.00780 -3.27163 5981 ft 261 kts 26°
2026-04-21 16:32 56.02580 -3.26610 6250 ft 266 kts 358°
2026-04-21 16:32 56.04392 -3.27556 6516 ft 276 kts 337°
2026-04-21 16:32 56.05990 -3.29443 6512 ft 279 kts 321°
2026-04-21 16:33 56.07166 -3.32212 6504 ft 284 kts 296°
2026-04-21 16:33 56.07719 -3.35580 6509 ft 285 kts 283°
2026-04-21 16:33 56.08118 -3.39080 6513 ft 285 kts 283°
2026-04-21 16:33 56.08530 -3.42525 6530 ft 285 kts 284°
2026-04-21 16:34 56.08978 -3.45950 6665 ft 283 kts 284°
2026-04-21 16:34 56.09434 -3.49393 7195 ft 286 kts 284°
2026-04-21 16:34 56.09885 -3.52806 8126 ft 290 kts 284°
2026-04-21 16:34 56.10495 -3.56193 9356 ft 282 kts 297°
2026-04-21 16:35 56.11431 -3.59126 10579 ft 269 kts 306°
2026-04-21 16:35 56.12420 -3.61759 11766 ft 254 kts 306°
2026-04-21 16:35 56.13350 -3.63986 12866 ft 234 kts 315°
2026-04-21 16:35 56.14457 -3.65830 14065 ft 215 kts 329°
2026-04-21 16:36 56.15798 -3.66922 14867 ft 218 kts 350°
2026-04-21 16:36 56.17301 -3.67537 15566 ft 232 kts 352°
2026-04-21 16:36 56.18914 -3.67971 16253 ft 243 kts
2026-04-21 16:36 56.20578 -3.67473 16915 ft 249 kts 28°
2026-04-21 16:37 56.22067 -3.65788 17602 ft 260 kts 40°
2026-04-21 16:37 56.23526 -3.63765 18262 ft 275 kts 40°
2026-04-21 16:37 56.25085 -3.61655 18910 ft 291 kts 39°
2026-04-21 16:37 56.26761 -3.59457 19506 ft 307 kts 38°
2026-04-21 16:38 56.28531 -3.57173 20072 ft 323 kts 38°
2026-04-21 16:38 56.30398 -3.54776 20616 ft 339 kts 38°
2026-04-21 16:38 56.32357 -3.52263 21128 ft 355 kts 37°
2026-04-21 16:38 56.34390 -3.49652 21575 ft 371 kts 37°
2026-04-21 16:39 56.36536 -3.46891 21999 ft 387 kts 37°
2026-04-21 16:39 56.38770 -3.44009 22436 ft 401 kts 37°
2026-04-21 16:39 56.41042 -3.41075 23100 ft 407 kts 37°
2026-04-21 16:39 56.43344 -3.38097 23755 ft 412 kts 37°
2026-04-21 16:40 56.45670 -3.35104 24382 ft 417 kts 36°
2026-04-21 16:40 56.48054 -3.32116 25000 ft 422 kts 37°
2026-04-21 16:40 56.50488 -3.29112 25602 ft 427 kts 36°
2026-04-21 16:40 56.52952 -3.26085 26242 ft 431 kts 36°
2026-04-21 16:41 56.54586 -3.24077 26654 ft 434 kts 36°
2026-04-21 16:41 56.57929 -3.19996 27406 ft 432 kts 36°
2026-04-21 16:41 56.60392 -3.16966 27651 ft 434 kts 36°
2026-04-21 16:41 56.62900 -3.13854 27679 ft 432 kts 36°
2026-04-21 16:42 56.65376 -3.10765 27685 ft 430 kts 36°
2026-04-21 16:42 56.67802 -3.07643 27685 ft 429 kts 38°
2026-04-21 16:42 56.70080 -3.04258 27658 ft 427 kts 43°
2026-04-21 16:42 56.72276 -3.00546 27547 ft 425 kts 45°
2026-04-21 16:43 56.74339 -2.96800 27521 ft 426 kts 47°
2026-04-21 16:43 56.76407 -2.92948 27514 ft 427 kts 47°
2026-04-21 16:43 56.78480 -2.89049 27518 ft 427 kts 47°
2026-04-21 16:43 56.80538 -2.85170 27541 ft 427 kts 47°
2026-04-21 16:44 56.82585 -2.81311 27548 ft 427 kts 47°
2026-04-21 16:44 56.84659 -2.77401 27551 ft 427 kts 47°
2026-04-21 16:44 56.86720 -2.73520 27554 ft 427 kts 47°
2026-04-21 16:44 56.88780 -2.69639 27559 ft 427 kts 47°
2026-04-21 16:45 56.90856 -2.65726 27561 ft 428 kts 47°
2026-04-21 16:45 56.92903 -2.61865 27562 ft 428 kts 47°
2026-04-21 16:45 56.94964 -2.57975 27563 ft 428 kts 47°
2026-04-21 16:45 56.97026 -2.54077 27562 ft 428 kts 47°
2026-04-21 16:46 56.99113 -2.50126 27564 ft 428 kts 47°
2026-04-21 16:46 57.01167 -2.46231 27566 ft 428 kts 47°
2026-04-21 16:46 57.03223 -2.42328 27570 ft 428 kts 47°
2026-04-21 16:46 57.05278 -2.38419 27574 ft 428 kts 47°
2026-04-21 16:47 57.07355 -2.34461 27577 ft 428 kts 47°
2026-04-21 16:47 57.09407 -2.30543 27580 ft 428 kts 47°
2026-04-21 16:47 57.11473 -2.26594 27583 ft 428 kts 47°
2026-04-21 16:47 57.13436 -2.22833 27585 ft 428 kts 47°
2026-04-21 16:48 57.15491 -2.18890 27587 ft 428 kts 47°
2026-04-21 16:48 57.17547 -2.14938 27589 ft 428 kts 47°
2026-04-21 16:48 57.19618 -2.10950 27590 ft 428 kts 47°
2026-04-21 16:48 57.21653 -2.07025 27592 ft 428 kts 47°
2026-04-21 16:49 57.23726 -2.03021 27593 ft 428 kts 47°
2026-04-21 16:49 57.25766 -1.99074 27595 ft 428 kts 47°
2026-04-21 16:49 57.27801 -1.95130 27595 ft 429 kts 47°
2026-04-21 16:49 57.29848 -1.91156 27596 ft 429 kts 47°
2026-04-21 16:50 57.31920 -1.87125 27596 ft 429 kts 47°
2026-04-21 16:50 57.33961 -1.83148 27596 ft 429 kts 47°
2026-04-21 16:50 57.36005 -1.79159 27596 ft 429 kts 47°
2026-04-21 16:50 57.38038 -1.75185 27594 ft 429 kts 47°
2026-04-21 16:51 57.40097 -1.71152 27593 ft 429 kts 47°
2026-04-21 16:51 57.42147 -1.67128 27593 ft 429 kts 47°
2026-04-21 16:51 57.44180 -1.63133 27593 ft 429 kts 47°
2026-04-21 16:51 57.46231 -1.59095 27594 ft 429 kts 47°
2026-04-21 16:52 57.48271 -1.55071 27594 ft 430 kts 47°
2026-04-21 16:52 57.50304 -1.51056 27594 ft 430 kts 47°
2026-04-21 16:52 57.51667 -1.48359 27594 ft 430 kts 47°
2026-04-21 16:52 57.54382 -1.42978 27594 ft 430 kts 47°
2026-04-21 16:53 57.56419 -1.38932 27595 ft 430 kts 47°
2026-04-21 16:53 57.58461 -1.34870 27595 ft 430 kts 48°
2026-04-21 16:53 57.60477 -1.30852 27596 ft 430 kts 48°
2026-04-21 16:53 57.62530 -1.26753 27597 ft 430 kts 48°
2026-04-21 16:54 57.64546 -1.22721 27597 ft 430 kts 48°
2026-04-21 16:54 57.66564 -1.18679 27597 ft 430 kts 48°
2026-04-21 16:54 57.68590 -1.14611 27598 ft 430 kts 48°
2026-04-21 16:54 57.70636 -1.10499 27597 ft 429 kts 48°
2026-04-21 16:55 57.72657 -1.06427 27596 ft 429 kts 48°
2026-04-21 16:55 57.74681 -1.02343 27595 ft 429 kts 48°
2026-04-21 16:55 57.76705 -0.98253 27594 ft 429 kts 48°
2026-04-21 16:55 57.78716 -0.94181 27593 ft 429 kts 48°
2026-04-21 16:56 57.80726 -0.90104 27591 ft 429 kts 48°
2026-04-21 16:56 57.82761 -0.85970 27589 ft 429 kts 48°
2026-04-21 16:56 57.84766 -0.81887 27588 ft 429 kts 48°
2026-04-21 16:56 57.86797 -0.77746 27587 ft 429 kts 48°
2026-04-21 16:57 57.88790 -0.73675 27586 ft 429 kts 48°
2026-04-21 16:57 57.90805 -0.69551 27586 ft 429 kts 48°
2026-04-21 16:57 57.92818 -0.65423 27585 ft 429 kts 48°
2026-04-21 16:57 57.94839 -0.61273 27585 ft 429 kts 48°
2026-04-21 16:58 57.96828 -0.57181 27585 ft 429 kts 48°
2026-04-21 16:58 57.98840 -0.53035 27585 ft 429 kts 48°
2026-04-21 16:58 58.00847 -0.48892 27582 ft 429 kts 48°
2026-04-21 16:58 58.02855 -0.44740 27574 ft 429 kts 48°
2026-04-21 16:59 58.04868 -0.40566 27572 ft 430 kts 48°
2026-04-21 16:59 58.06850 -0.36452 27571 ft 430 kts 48°
2026-04-21 16:59 58.08862 -0.32269 27573 ft 430 kts 49°
2026-04-21 16:59 58.10853 -0.28121 27580 ft 429 kts 49°
2026-04-21 17:00 58.12869 -0.23914 27581 ft 428 kts 48°
2026-04-21 17:00 58.14854 -0.19763 27580 ft 427 kts 48°
2026-04-21 17:00 58.16159 -0.17032 27579 ft 427 kts 48°
2026-04-21 17:00 58.18811 -0.11470 27575 ft 426 kts 48°
2026-04-21 17:01 58.20775 -0.07343 27574 ft 427 kts 48°
2026-04-21 17:01 58.22769 -0.03141 27573 ft 427 kts 48°
2026-04-21 17:01 58.24733 0.01001 27573 ft 427 kts 48°
2026-04-21 17:01 58.26731 0.05224 27573 ft 426 kts 48°
2026-04-21 17:02 58.28702 0.09398 27574 ft 426 kts 48°
2026-04-21 17:02 58.30667 0.13566 27575 ft 426 kts 48°
2026-04-21 17:02 58.32636 0.17749 27578 ft 425 kts 48°
2026-04-21 17:02 58.34595 0.21919 27585 ft 427 kts 48°
2026-04-21 17:03 58.36581 0.26154 27587 ft 429 kts 49°
2026-04-21 17:03 58.38544 0.30346 27587 ft 431 kts 49°
2026-04-21 17:03 58.40549 0.34637 27584 ft 433 kts 49°
2026-04-21 17:03 58.42530 0.38884 27574 ft 433 kts 49°
2026-04-21 17:04 58.44525 0.43169 27568 ft 433 kts 49°
2026-04-21 17:04 58.46522 0.47467 27564 ft 433 kts 49°
2026-04-21 17:04 58.48502 0.51735 27560 ft 433 kts 49°
2026-04-21 17:04 58.50485 0.56018 27558 ft 434 kts 49°
2026-04-21 17:05 58.52499 0.60380 27557 ft 434 kts 49°
2026-04-21 17:05 58.54466 0.64645 27557 ft 435 kts 49°
2026-04-21 17:05 58.56480 0.69019 27556 ft 434 kts 50°
2026-04-21 17:05 58.58469 0.73342 27556 ft 435 kts 50°
2026-04-21 17:06 58.60436 0.77629 27556 ft 435 kts 50°
2026-04-21 17:06 58.62429 0.81983 27555 ft 436 kts 50°
2026-04-21 17:06 58.64420 0.86338 27555 ft 436 kts 50°
2026-04-21 17:06 58.66414 0.90709 27554 ft 436 kts 50°
2026-04-21 17:07 58.67755 0.93656 27553 ft 436 kts 50°
2026-04-21 17:07 58.70409 0.99496 27553 ft 437 kts 50°
2026-04-21 17:07 58.72382 1.03845 27552 ft 437 kts 50°
2026-04-21 17:07 58.74365 1.08226 27552 ft 437 kts 50°
2026-04-21 17:08 58.76352 1.12623 27552 ft 437 kts 50°
2026-04-21 17:08 58.78334 1.17018 27551 ft 437 kts 50°
2026-04-21 17:08 58.80338 1.21471 27551 ft 438 kts 50°
2026-04-21 17:08 58.82323 1.25890 27551 ft 438 kts 50°
2026-04-21 17:09 58.86286 1.34737 27550 ft 438 kts 50°
2026-04-21 17:09 58.88257 1.39147 27550 ft 438 kts 50°
2026-04-21 17:09 58.90243 1.43601 27550 ft 438 kts 50°
2026-04-21 17:10 58.92243 1.48094 27550 ft 439 kts 50°
2026-04-21 17:10 58.94200 1.52499 27549 ft 439 kts 50°
2026-04-21 17:10 58.96181 1.56968 27550 ft 439 kts 50°
2026-04-21 17:10 58.98170 1.61462 27550 ft 439 kts 50°
2026-04-21 17:11 59.00144 1.65931 27550 ft 439 kts 51°
2026-04-21 17:11 59.02121 1.70417 27550 ft 439 kts 51°
2026-04-21 17:11 59.04105 1.74916 27550 ft 440 kts 50°
2026-04-21 17:11 59.06103 1.79330 27550 ft 440 kts 49°
2026-04-21 17:12 59.08162 1.83767 27551 ft 440 kts 49°
2026-04-21 17:12 59.10214 1.88144 27551 ft 441 kts 49°
2026-04-21 17:12 59.12270 1.92522 27551 ft 441 kts 49°
2026-04-21 17:12 59.14327 1.96907 27549 ft 441 kts 49°
2026-04-21 17:13 59.16390 2.01323 27545 ft 442 kts 49°
2026-04-21 17:13 59.18446 2.05741 27540 ft 442 kts 49°
2026-04-21 17:13 59.20488 2.10147 27534 ft 442 kts 49°
2026-04-21 17:13 59.22541 2.14592 27530 ft 443 kts 49°
2026-04-21 17:14 59.24612 2.19088 27529 ft 443 kts 49°
2026-04-21 17:14 59.26660 2.23546 27529 ft 443 kts 49°
2026-04-21 17:14 59.28716 2.28032 27529 ft 444 kts 49°
2026-04-21 17:14 59.30747 2.32473 27529 ft 444 kts 49°
2026-04-21 17:15 59.32803 2.36980 27529 ft 444 kts 49°
2026-04-21 17:15 59.34842 2.41461 27529 ft 445 kts 49°
2026-04-21 17:15 59.36916 2.46026 27529 ft 445 kts 49°
2026-04-21 17:15 59.38956 2.50526 27529 ft 445 kts 49°
2026-04-21 17:16 59.40997 2.55034 27528 ft 445 kts 49°
2026-04-21 17:16 59.43034 2.59536 27528 ft 445 kts 49°
2026-04-21 17:16 59.45077 2.64067 27528 ft 445 kts 49°
2026-04-21 17:16 59.47126 2.68623 27527 ft 445 kts 50°
2026-04-21 17:17 59.49169 2.73175 27527 ft 445 kts 50°
2026-04-21 17:17 59.51215 2.77742 27527 ft 445 kts 50°
2026-04-21 17:17 59.53256 2.82309 27527 ft 445 kts 50°
2026-04-21 17:17 59.55304 2.86903 27527 ft 445 kts 50°
2026-04-21 17:18 59.57339 2.91474 27526 ft 445 kts 50°
2026-04-21 17:18 59.59365 2.96030 27526 ft 444 kts 50°
2026-04-21 17:18 59.61385 3.00585 27526 ft 444 kts 50°
2026-04-21 17:18 59.63408 3.05153 27524 ft 444 kts 50°
2026-04-21 17:19 59.65428 3.09724 27522 ft 444 kts 50°
2026-04-21 17:19 59.67441 3.14289 27520 ft 444 kts 50°
2026-04-21 17:19 59.69455 3.18864 27517 ft 444 kts 50°
2026-04-21 17:19 59.71491 3.23501 27515 ft 443 kts 50°
2026-04-21 17:20 59.73505 3.28093 27515 ft 443 kts 50°
2026-04-21 17:20 59.75507 3.32669 27514 ft 443 kts 50°
2026-04-21 17:20 59.77499 3.37231 27514 ft 443 kts 50°
2026-04-21 17:20 59.79533 3.41892 27500 ft 441 kts 50°
2026-04-21 17:21 59.81492 3.46390 27219 ft 432 kts 50°
2026-04-21 17:21 59.83441 3.50878 26567 ft 431 kts 50°
2026-04-21 17:21 59.85375 3.55344 25949 ft 426 kts 50°
2026-04-21 17:21 59.87289 3.59771 25002 ft 419 kts 50°
2026-04-21 17:22 59.88525 3.62637 24357 ft 414 kts 50°
2026-04-21 17:22 59.90992 3.68367 23052 ft 405 kts 51°
2026-04-21 17:22 59.92807 3.72592 22053 ft 398 kts 51°
2026-04-21 17:22 59.94570 3.76703 21027 ft 391 kts 51°
2026-04-21 17:23 59.96320 3.80792 19999 ft 384 kts 51°
2026-04-21 17:23 59.98013 3.84755 18991 ft 378 kts 50°
2026-04-21 17:23 59.99676 3.88664 17984 ft 371 kts 50°
2026-04-21 17:23 60.01327 3.92572 16953 ft 364 kts 51°
2026-04-21 17:24 60.02752 3.96642 16000 ft 355 kts 60°
2026-04-21 17:24 60.03800 4.00957 15427 ft 340 kts 68°
2026-04-21 17:24 60.04579 4.05445 14981 ft 350 kts 73°
2026-04-21 17:24 60.05226 4.10149 14429 ft 351 kts 76°
2026-04-21 17:25 60.05787 4.14790 13846 ft 338 kts 77°
2026-04-21 17:25 60.06311 4.19327 13303 ft 342 kts 77°
2026-04-21 17:25 60.06850 4.23996 12726 ft 344 kts 77°
2026-04-21 17:25 60.07394 4.28639 12137 ft 341 kts 76°
2026-04-21 17:26 60.07925 4.33125 11583 ft 328 kts 76°
2026-04-21 17:26 60.08456 4.37577 11219 ft 332 kts 76°
2026-04-21 17:26 60.08984 4.41999 11011 ft 317 kts 76°
2026-04-21 17:26 60.09477 4.46130 10890 ft 300 kts 76°
2026-04-21 17:27 60.09948 4.50093 10760 ft 285 kts 76°
2026-04-21 17:27 60.10396 4.53882 10623 ft 280 kts 76°
2026-04-21 17:27 60.10846 4.57689 10323 ft 281 kts 76°
2026-04-21 17:27 60.11300 4.61476 9916 ft 279 kts 75°
2026-04-21 17:28 60.11724 4.65218 9588 ft 274 kts 80°
2026-04-21 17:28 60.11788 4.68954 9248 ft 270 kts 95°
2026-04-21 17:28 60.11489 4.72666 8906 ft 266 kts 101°
2026-04-21 17:28 60.11102 4.76203 8645 ft 259 kts 105°
2026-04-21 17:29 60.10401 4.79438 8529 ft 247 kts 122°
2026-04-21 17:29 60.09271 4.81862 8389 ft 240 kts 146°
2026-04-21 17:29 60.07712 4.83061 7916 ft 246 kts 173°
2026-04-21 17:29 60.06012 4.83040 7760 ft 244 kts 182°
2026-04-21 17:30 60.04312 4.83191 7756 ft 248 kts 169°
2026-04-21 17:30 60.02668 4.84205 7755 ft 248 kts 159°
2026-04-21 17:30 60.01056 4.85486 7573 ft 249 kts 158°
2026-04-21 17:30 59.99475 4.86818 7320 ft 245 kts 153°
2026-04-21 17:31 59.98063 4.88605 7072 ft 244 kts 141°
2026-04-21 17:31 59.96756 4.90800 6817 ft 243 kts 138°
2026-04-21 17:31 59.95512 4.92990 6567 ft 242 kts 137°
2026-04-21 17:31 59.94370 4.95463 6309 ft 240 kts 125°
2026-04-21 17:32 59.93772 4.97312 6141 ft 239 kts 119°
2026-04-21 17:32 59.92703 5.01151 5803 ft 238 kts 117°
2026-04-21 17:32 59.91954 5.04062 5548 ft 237 kts 111°
2026-04-21 17:32 59.91500 5.07451 5301 ft 263 kts 98°
2026-04-21 17:33 59.91539 5.10933 5031 ft 246 kts 73°
2026-04-21 17:33 59.92285 5.13791 4779 ft 230 kts 50°
2026-04-21 17:33 59.93456 5.15930 4522 ft 227 kts 31°
2026-04-21 17:33 59.94846 5.16884 4270 ft 201 kts
2026-04-21 17:34 59.96192 5.16794 4019 ft 192 kts 355°
2026-04-21 17:34 59.97507 5.16635 3756 ft 189 kts 356°
2026-04-21 17:34 59.98826 5.16518 3504 ft 189 kts 357°
2026-04-21 17:34 60.00125 5.16420 3264 ft 187 kts 357°
2026-04-21 17:35 60.01428 5.16316 3035 ft 186 kts 357°
2026-04-21 17:35 60.02713 5.16208 3003 ft 185 kts 357°
2026-04-21 17:35 60.03991 5.16097 3005 ft 186 kts 357°
2026-04-21 17:35 60.05282 5.15986 3000 ft 186 kts 357°
2026-04-21 17:36 60.06587 5.16044 2994 ft 187 kts
2026-04-21 17:36 60.07744 5.17181 3001 ft 199 kts 44°
2026-04-21 17:36 60.08508 5.19470 3004 ft 190 kts 62°
2026-04-21 17:36 60.09080 5.21666 3003 ft 172 kts 60°
2026-04-21 17:37 60.09657 5.23726 3000 ft 168 kts 59°
2026-04-21 17:37 60.10237 5.25727 2998 ft 166 kts 56°
2026-04-21 17:37 60.10729 5.26903 2993 ft 165 kts 38°
2026-04-21 17:37 60.12167 5.27670 2992 ft 165 kts 355°
2026-04-21 17:38 60.13279 5.27034 2884 ft 166 kts 340°
2026-04-21 17:38 60.14384 5.26545 2731 ft 163 kts 354°
2026-04-21 17:38 60.15525 5.26329 2599 ft 164 kts 354°
2026-04-21 17:38 60.16624 5.25863 2498 ft 162 kts 337°
2026-04-21 17:39 60.17666 5.24957 2496 ft 163 kts 342°
2026-04-21 17:39 60.18773 5.24493 2498 ft 163 kts 352°
2026-04-21 17:39 60.19937 5.24114 2479 ft 179 kts 348°
2026-04-21 17:39 60.21103 5.23898 2559 ft 152 kts 359°
2026-04-21 17:40 60.22067 5.23985 2413 ft 135 kts
2026-04-21 17:40 60.23032 5.23906 1906 ft 143 kts 352°
2026-04-21 17:40 60.24007 5.23563 1409 ft 147 kts 350°
2026-04-21 17:40 60.25019 5.23257 964 ft 145 kts 351°
2026-04-21 17:41 60.25984 5.22929 711 ft 135 kts 349°
2026-04-21 17:41 60.26886 5.22632 518 ft 134 kts 350°
2026-04-21 17:41 60.27835 5.22323 287 ft 140 kts 350°
2026-04-21 17:41 60.28770 5.22012 165 ft 128 kts 349°
2026-04-21 17:42 60.29456 5.21779 156 ft 44 kts 351°
2026-04-21 17:42 60.29619 5.21727 151 ft 11 kts 349°
2026-04-21 17:42 60.29699 5.21771 151 ft 8 kts 64°
2026-04-21 17:42 60.29707 5.21817 151 ft 4 kts 76°
2026-04-21 17:43 60.29716 5.21910 152 ft 9 kts 80°
2026-04-21 17:43 60.29713 5.21983 152 ft 9 kts 117°
2026-04-21 17:43 60.29636 5.22047 152 ft 15 kts 169°
2026-04-21 17:43 60.29512 5.22088 155 ft 17 kts 170°
2026-04-21 17:44 60.29408 5.22124 159 ft 16 kts 170°
2026-04-21 17:44 60.29285 5.22164 164 ft 18 kts 170°
2026-04-21 17:44 60.29160 5.22207 169 ft 19 kts 170°
2026-04-21 17:44 60.29063 5.22239 172 ft 15 kts 169°
2026-04-21 17:45 60.28951 5.22278 173 ft 18 kts 168°
2026-04-21 17:45 60.28804 5.22326 171 ft 23 kts 171°
2026-04-21 17:45 60.28690 5.22411 170 ft 15 kts 102°
2026-04-21 17:45 60.28714 5.22480 172 ft 6 kts 21°
2026-04-21 17:46 60.28753 5.22524 174 ft 4 kts 33°
2026-04-21 17:46 60.28766 5.22542 174 ft 1 kts 34°
2026-04-21 17:46 60.28793 5.22578 175 ft 5 kts 34°
2026-04-21 17:46 60.28818 5.22614 176 ft 3 kts 34°
2026-04-21 17:47 60.28825 5.22622 176 ft 0 kts 34°